CZ-6A DEB

Satellite information

Favourite Embed

Satellite Type and Status

DEBRISIN ORBIT

Key statistics

Satellite CZ-6A DEB at a glance.

Uptime

1129

Days in orbit

Revolutions

≈ 13.9

Per day

Orbit

SSO

Sun Synchronous Orbit

Inclination

98.8

Latest

Satellite identification and parameters

Extended collection of information and parameters for CZ-6A DEB.

Object identification

Identified? True

Debris? True

Object name: CZ-6A DEB

International designator: 2022-151AGJ

Object number (NORAD): 56658

Object ID (CCSDS): 56658

Country: PEOPLES REPUBLIC OF CHINA (PRC)

Current information (Y/N): Y

RCS size: SMALL

Orbital parameters

Period: 103.407 minutes

Inclination: 98.8494 deg

SMA: 7297.84 km

Apoapsis: 1012.29 km

Periapsis: 827.12 km

RAAN: 306.5786 deg

Eccentricy: 0.01268664

Argument of periapsis: 227.7056 deg

Mean anomaly: 131.3297 deg

Mean motion: 13.92551392 rev/day

Mean motion (dot): 0.000008 rev/day2

B* drag term: 0.00061204267 1/REarth

Two-line elements (TLE)

Creation date: Dec. 10, 2025, 7:58 p.m.

Reference frame: TEME

Reference center: EARTH

Epoch: Dec. 10, 2025, 8:11 a.m. UTC

TLE line 0: 0 CZ-6A DEB

TLE line 1: 1 56658U 22151AGJ 25344.34102349 .00000800 00000-0 61204-3 0 9999

TLE line 2: 2 56658 98.8494 306.5786 0126866 227.7056 131.3297 13.92551392133640

Live tracking on map

Real-time ground track for satellite CZ-6A DEB.

In-orbit conjunctions

A list of the most updated potential collisions computed for object CZ-6A DEB.

Target Orbit TCA Probability of collision Miss distance Type
SL-16 DEB LEO 2024-06-06 03:46:12 0.0001542574 128.0 (m) DEBRIS

Associated space launch

Chinese satellite reported for atmospheric/ocean/environmental/spatial parameter research purposes, details TBD.

CZ-6A DEB was lifted into orbit during the mission ‘Long March 6A | Yunhai 3’, on board a Long March 6A space rocket.

The launch took place on Nov. 11, 2022, 10:52 p.m. from Launch Complex 9A.

For more information about the launch, click the button.

Launch to space Long March 6A | Yunhai 3
Long March 6A | Yunhai 3

Agency: N/A

Status: Launch Successful

Launch date: Nov. 11, 2022, 10:52 p.m. UTC

Rocket: Long March 6A

Launch pad: Launch Complex 9A

Location: Taiyuan Satellite Launch Center, People's Republic of China

...

Latest news about this satellite

There are no fresh news available about this satellite. Check back as we update our databases every day.


Newsletter sign-up

Weekly statistics, charts and insights to help you stay on top of the space industry.